GOES 12 [-]

Last updated on Fri Dec 29 2023 00:02:21 GMT+0000 (Coordinated Universal Time)

1 26871U 01031A 23361.45976573 -.00000249 00000+0 00000+0 0 9994 2 26871 10.5283 44.3713 0006354 283.1704 253.7550 0.99138993 81782

Satellite not in orbit

GOES 12 [-]